Temp
23 23 24 23 23 24 25 26 25 26 26 26 25 25 25 25 25 24 23 23 22 22 22 22 22 22 21 21 21 22 22 22 22 23 23 23 23 23 23 23 24 24 25 25 25 25 25 25 25 25 25 25 25 25 25 26 26 26 26 26 25 25 26 26 26 26 26 26 26 26 27 26 26 26 26 26 26 26 25 25 26 26 26 26 26
22 23 23 23 23 24 25 25 25 25 25 26 25 25 25 25 25 25 24 23 23 23 22 22 22 22 22 22 22 22 22 22 23 23 23 23 23 23 23 23 23 24 24 25 25 25 25 25 25 25 25 25 25 25 25 25 25 26 26 25 26 25 26 26 26 26 26 26 25 25 26 26 26 26 26 26 26 26 26 26 26 25 26 26 26
23 23 23 23 24 25 25 25 25 25 25 25 25 25 24 24 25 25 24 24 24 23 23 23 23 23 23 23 23 22 22 22 23 23 23 23 23 23 23 23 23 24 24 25 25 25 25 25 25 25 25 25 25 25 25 25 25 25 25 25 25 25 25 26 26 26 26 26 25 25 25 26 26 26 26 26 26 26 26 26 26 25 25 25 25
23 23 24 24 25 25 25 25 26 25 25 25 24 24 24 24 25 24 24 24 24 24 23 23 23 23 22 22 22 22 22 22 22 23 23 23 23 23 23 23 23 24 24 24 25 25 24 25 25 25 25 25 25 25 25 25 25 25 25 25 25 25 25 26 26 26 26 26 25 25 25 24 25 25 25 26 26 26 26 26 26 26 26 25 25
25 24 25 25 25 25 25 25 25 25 25 25 24 24 24 25 25 25 25 24 24 24 23 23 22 22 22 22 22 22 22 22 22 22 23 23 23 23 23 23 23 24 24 24 25 25 24 25 25 25 25 25 25 25 25 25 25 25 25 25 25 25 26 26 26 26 26 26 26 25 25 25 25 25 25 26 26 26 26 26 26 26 26 26 26
25 25 26 26 25 25 25 25 25 25 25 25 24 24 24 25 25 25 25 24 24 24 23 22 22 22 22 21 21 21 21 21 22 23 23 23 23 23 23 23 23 24 24 24 25 25 25 25 25 25 25 25 25 25 25 25 25 25 25 25 25 26 25 25 26 26 26 26 26 26 26 26 26 25 25 25 25 26 27 26 26 26 26 26 26
26 26 26 25 25 25 24 25 25 25 25 25 24 24 24 25 24 24 24 24 24 23 22 22 22 22 22 22 21 21 21 21 22 23 23 23 23 23 23 23 24 24 24 24 24 25 25 25 25 25 25 25 25 25 25 25 25 25 25 26 26 26 25 25 26 26 26 26 26 26 26 26 26 26 25 25 24 26 26 26 26 26 26 26 26
26 26 26 25 25 24 23 24 24 24 25 25 24 24 24 24 24 24 24 24 24 23 22 22 22 22 22 22 22 22 22 22 22 23 23 23 23 23 23 23 24 24 24 24 24 25 25 24 25 25 25 25 25 25 25 25 25 25 26 26 26 26 26 26 26 26 26 26 26 26 26 26 26 26 26 25 24 25 25 26 26 26 26 26 25
25 25 25 24 24 23 23 24 24 24 24 25 24 24 24 24 24 24 23 23 23 23 23 22 22 22 22 22 22 22 22 22 22 23 23 23 23 23 23 23 23 24 24 24 24 24 24 24 25 25 25 25 25 25 25 25 25 25 26 26 26 26 26 26 26 26 25 25 26 26 26 26 26 26 26 25 25 25 25 25 25 25 26 26 26
23 24 23 22 23 23 23 23 24 23 24 24 25 24 24 24 24 24 24 24 23 23 23 23 22 22 22 22 22 22 22 22 22 23 23 23 23 23 23 23 23 23 24 24 24 24 24 24 25 25 25 25 25 25 25 25 25 25 26 26 26 26 26 26 25 25 25 25 25 25 26 26 26 26 26 25 25 24 24 24 24 24 25 26 26
23 23 22 22 23 23 23 23 22 22 23 24 24 24 23 23 24 24 24 23 23 23 23 23 22 22 22 22 22 22 22 22 22 22 23 23 23 23 23 23 23 23 24 24 24 24 24 25 25 25 25 25 25 25 25 25 25 25 26 26 26 26 26 26 25 25 25 25 25 26 26 26 25 25 26 26 25 24 24 24 24 24 24 25 26
23 23 22 22 22 22 22 22 22 22 23 24 24 24 24 23 23 24 23 23 23 23 23 23 22 22 22 22 22 22 22 22 22 23 23 23 23 24 24 23 23 23 24 24 24 24 24 25 25 25 25 25 25 25 25 25 25 25 26 26 26 26 26 26 26 26 25 25 25 26 26 26 26 26 26 26 26 25 25 24 24 25 25 25 26
22 22 22 22 22 22 22 22 22 22 23 24 24 24 24 23 23 23 23 23 23 23 23 23 22 22 22 22 22 22 22 22 23 23 23 23 24 24 24 24 24 24 24 24 24 24 24 25 25 25 25 25 25 25 25 25 25 26 26 26 26 26 26 26 26 26 25 25 26 26 26 26 26 26 26 26 26 26 25 24 24 25 24 25 26
23 22 22 22 22 22 22 22 22 23 23 24 23 23 24 23 23 23 23 23 23 23 23 23 23 22 22 22 22 22 22 23 23 23 23 23 24 24 24 24 24 24 24 24 24 25 24 25 25 25 25 25 25 25 25 26 26 25 26 26 26 26 26 26 26 25 25 25 26 26 26 26 26 26 26 26 26 26 26 25 25 25 25 24 25
24 23 23 22 22 23 23 22 22 23 23 23 23 23 23 23 23 23 23 23 23 23 23 23 23 23 22 22 22 22 22 23 23 23 23 23 24 24 24 24 24 24 24 24 25 25 25 25 25 25 25 25 25 25 25 25 25 25 26 26 26 26 25 25 25 25 25 25 26 26 26 26 26 26 26 26 26 26 26 26 25 25 25 24 24
24 24 23 23 23 23 22 23 23 23 23 23 23 23 23 23 23 23 23 23 23 23 23 23 23 23 22 22 23 23 22 23 23 23 23 24 24 24 24 24 24 24 24 25 25 25 25 25 25 25 25 25 26 25 25 25 25 26 26 26 26 26 25 25 25 25 25 26 26 26 26 26 26 26 26 26 26 26 26 26 26 25 25 24 24
25 25 24 23 23 23 22 23 23 23 23 23 23 23 23 23 23 23 23 23 23 23 23 23 23 23 23 22 22 23 23 23 23 23 24 24 24 24 24 24 24 25 25 25 25 25 25 25 25 26 26 26 26 26 25 25 26 26 26 26 26 25 25 25 25 25 25 26 26 26 26 26 26 26 26 26 26 26 26 26 26 25 25 25 25
25 25 24 23 23 23 22 23 24 24 23 23 24 24 24 23 23 23 22 22 23 23 22 21 21 21 23 23 22 23 23 23 23 23 24 24 24 24 24 25 25 25 25 25 25 25 26 26 26 26 26 26 26 26 26 26 26 26 26 26 26 25 25 25 25 25 25 25 26 26 26 26 26 26 26 26 26 26 26 26 26 26 25 25 24
25 25 25 24 23 23 23 23 24 24 24 24 24 24 24 23 23 23 22 22 23 22 21 21 20 20 22 23 23 23 23 23 23 24 24 24 24 24 24 25 25 25 25 26 26 26 26 26 26 26 26 26 26 26 26 26 26 26 26 26 25 25 25 25 25 25 25 25 25 25 26 26 26 26 26 26 26 26 26 26 26 26 26 25 25
25 25 25 24 23 23 23 23 24 24 24 24 24 23 23 23 22 22 22 22 22 22 21 22 22 21 22 23 24 24 24 24 24 24 24 24 24 25 25 25 25 25 25 26 26 26 26 26 26 26 26 26 26 26 26 26 26 26 26 26 25 25 25 25 25 25 25 25 25 25 26 26 26 26 26 26 26 26 26 26 26 26 25 25 25
25 25 25 24 23 24 24 24 24 24 23 23 23 23 23 23 22 22 22 21 21 22 21 22 22 21 21 22 23 24 24 24 24 24 24 24 25 25 25 25 25 25 26 26 26 26 26 26 26 26 27 27 26 26 26 26 26 26 26 26 25 25 25 25 25 25 25 25 25 25 26 26 25 25 25 26 26 26 26 26 26 26 25 25 25
24 24 25 24 23 24 24 24 24 24 23 23 23 23 23 22 22 22 22 22 22 22 21 22 22 21 21 22 22 24 24 24 24 24 24 25 25 25 25 25 25 26 26 26 26 26 26 27 27 27 27 27 27 26 26 26 26 26 26 26 26 25 25 25 25 25 25 25 25 25 25 25 25 24 24 25 25 26 26 26 25 25 25 25 24
24 24 24 23 22 24 24 24 24 24 24 24 23 23 23 23 23 22 22 21 21 21 21 21 22 21 21 21 21 22 24 24 24 24 24 25 25 25 25 25 26 26 26 26 26 27 27 27 27 27 27 27 27 27 26 26 26 26 26 26 26 26 25 25 25 25 25 25 25 25 25 25 25 25 25 24 24 25 25 25 25 25 24 24 24
24 24 23 22 22 23 23 23 24 23 24 23 23 23 23 23 23 23 22 22 21 21 20 21 21 21 21 21 20 21 21 21 22 24 25 25 25 25 26 26 26 26 26 26 27 27 27 27 27 27 27 27 27 27 27 27 27 27 26 26 26 26 25 25 25 25 25 25 25 25 25 25 25 25 25 25 24 24 25 24 24 24 24 24 23
24 24 24 23 22 22 22 23 23 23 23 23 23 23 23 23 23 22 23 22 21 21 21 21 21 21 21 21 20 20 21 21 22 23 24 25 25 25 26 26 26 26 26 27 27 27 27 27 27 27 27 27 27 27 27 27 27 27 27 27 26 26 26 26 25 25 25 25 25 25 25 25 25 24 24 24 24 24 24 24 24 24 23 23 23
24 25 24 23 22 21 21 22 23 23 23 23 22 22 22 22 22 22 22 22 22 22 21 21 20 20 21 21 21 21 22 23 23 24 24 25 25 25 26 26 27 27 27 27 27 27 27 27 27 27 28 27 27 27 27 27 27 27 27 27 26 26 26 26 25 25 25 25 25 25 25 25 25 24 24 24 24 24 24 24 24 24 23 23 22
24 24 24 23 23 21 21 22 22 22 22 22 22 22 22 22 22 22 22 22 22 22 22 21 20 20 21 22 21 21 22 23 24 24 24 24 25 25 25 26 27 27 27 27 27 27 27 27 28 28 28 28 27 27 27 27 27 27 27 27 26 26 26 26 26 25 25 25 25 25 25 25 25 24 24 24 24 23 23 23 23 23 23 22 22
24 24 23 23 23 22 20 21 22 22 22 22 22 22 22 21 21 21 21 21 22 22 22 21 21 21 22 22 21 22 22 22 23 23 24 24 25 25 25 25 26 27 27 27 27 27 28 28 28 28 28 28 28 28 27 27 27 27 27 27 27 27 26 25 25 26 25 25 25 25 25 24 24 24 23 23 23 23 23 23 22 22 22 22 22
23 23 23 22 22 22 20 21 22 22 21 21 21 21 21 21 21 21 21 21 21 21 21 21 21 21 21 21 21 21 22 22 22 23 23 23 24 24 24 24 24 25 26 27 27 27 28 28 28 28 28 28 28 28 28 27 27 27 27 27 27 27 26 26 25 25 25 25 25 25 25 24 24 23 23 23 23 23 23 22 22 22 21 21 21
23 23 22 22 22 21 20 20 21 21 21 21 21 21 21 20 20 20 21 21 21 21 21 21 21 21 21 21 21 21 21 22 22 22 23 23 22 22 22 23 24 24 25 26 26 27 27 28 28 28 28 28 28 28 28 28 27 27 27 27 27 26 26 26 25 25 25 25 25 25 25 24 23 23 23 23 23 23 22 22 22 21 21 21 21
23 23 22 21 21 20 19 20 21 21 21 21 20 21 20 20 20 20 20 20 20 20 21 21 21 21 20 20 21 21 21 21 22 22 22 22 21 21 23 24 25 25 25 25 26 27 27 28 28 28 28 28 28 28 28 28 27 27 27 27 27 26 26 26 26 25 25 25 25 25 24 23 23 23 23 23 22 22 22 22 21 21 21 21 21
22 22 21 21 22 20 19 20 21 21 21 20 20 20 20 20 20 20 20 20 20 20 20 20 20 20 20 20 20 20 21 21 21 21 22 22 21 22 23 23 24 25 25 25 25 26 27 27 28 28 28 28 28 28 28 28 27 27 27 27 27 26 25 25 25 25 25 25 25 24 23 22 22 23 22 22 22 22 22 21 21 21 21 21 21
22 21 21 21 21 20 20 20 21 21 20 20 20 20 20 20 20 19 19 19 19 19 19 19 19 20 20 20 20 20 20 20 21 21 21 21 21 21 22 23 24 25 25 25 25 25 26 27 27 28 28 28 28 28 28 27 27 27 27 27 26 25 24 24 23 23 24 25 25 24 23 22 22 22 22 22 21 21 21 21 20 20 20 20 20
21 21 21 20 20 20 20 21 21 20 20 20 20 20 20 20 19 19 19 19 19 19 19 19 19 19 19 19 20 20 20 20 20 20 20 21 21 21 21 22 23 24 24 24 25 25 25 26 26 27 28 28 28 28 28 28 27 27 27 26 26 26 25 25 24 23 23 24 24 23 22 21 21 22 22 21 21 21 20 20 20 20 19 19 19
21 21 21 19 19 20 20 20 20 20 20 20 20 20 20 19 19 19 19 18 18 18 18 18 18 18 18 18 19 19 19 20 20 20 20 20 20 21 21 21 22 22 23 24 24 24 25 25 25 26 27 28 28 28 28 28 27 27 27 26 26 26 25 25 24 23 23 24 24 23 22 21 21 21 21 21 20 20 20 20 19 19 19 18 18
21 21 20 20 20 21 20 20 20 20 20 20 20 19 19 19 19 19 18 18 18 17 17 17 17 17 17 18 17 18 18 18 19 19 19 20 20 20 20 21 21 22 22 22 23 23 23 23 24 25 26 27 28 28 28 28 27 27 27 26 26 26 25 24 23 23 22 23 23 22 22 21 21 21 20 20 20 20 20 20 19 18 18 18 17
20 20 21 21 21 21 20 20 20 20 20 20 19 19 19 19 19 18 18 17 17 17 17 17 17 17 17 17 17 17 17 17 18 18 18 19 19 20 20 20 21 21 21 21 21 22 21 21 22 24 25 25 26 27 27 27 27 27 26 25 25 25 24 23 22 22 22 22 22 21 21 21 21 20 20 20 20 20 20 19 18 18 17 17 17
21 21 22 22 21 21 20 20 20 20 20 20 19 19 19 19 18 18 17 17 17 17 16 16 17 16 16 17 17 16 16 17 17 18 18 19 19 19 20 20 20 20 20 20 21 21 20 21 22 23 24 24 25 26 26 26 26 26 26 25 24 24 23 22 21 21 21 21 21 21 21 21 20 20 20 19 20 20 20 19 18 17 17 17 16
22 22 22 21 21 20 20 20 20 19 19 19 19 19 18 18 18 17 17 17 17 17 16 16 16 16 16 16 16 16 16 16 17 17 18 19 19 19 20 20 20 20 20 20 20 20 20 21 21 22 23 23 24 24 25 25 26 25 24 24 23 22 21 21 20 20 20 20 20 20 20 20 20 20 19 19 20 20 19 18 18 17 17 16 16
22 22 22 21 20 20 20 20 19 19 19 19 19 18 18 18 18 18 17 17 17 17 16 16 16 16 16 16 16 16 16 16 17 17 18 18 19 19 19 20 20 20 20 20 20 20 20 20 20 21 21 21 22 23 24 25 25 23 23 23 22 22 21 20 19 20 20 20 20 20 20 20 20 20 19 19 20 20 19 18 18 17 17 16 17
22 22 21 20 20 20 20 19 19 19 19 19 18 18 18 18 17 17 17 17 17 17 16 16 16 15 15 15 16 16 16 16 16 17 17 17 18 18 19 19 19 20 20 20 20 19 19 19 19 20 20 19 20 21 21 22 23 22 22 22 22 22 21 20 19 19 19 19 19 19 19 19 20 19 19 19 19 18 18 18 17 17 17 17 17
22 21 21 20 20 20 19 19 19 19 19 18 18 18 18 18 17 17 18 17 17 16 16 16 15 15 15 15 15 15 16 16 16 16 16 17 17 18 18 18 19 19 19 19 18 18 18 18 17 18 18 18 18 18 19 20 20 21 21 21 21 21 21 20 19 18 18 18 18 19 19 19 19 18 18 18 17 17 17 17 17 17 17 17 17
21 20 20 20 20 19 19 19 19 19 19 18 18 18 18 17 17 18 18 18 17 17 16 16 15 15 15 15 15 15 15 15 16 16 16 16 16 17 17 17 18 18 18 17 17 16 16 15 15 15 16 16 16 17 18 19 19 20 20 20 20 19 18 18 18 17 17 18 18 18 18 18 18 17 17 17 17 17 17 17 17 17 17 17 17
20 20 20 20 19 19 19 19 19 19 19 19 18 18 18 18 18 18 18 18 17 17 16 16 15 15 15 15 15 15 15 15 15 15 15 15 15 15 16 16 16 16 16 15 15 15 15 14 14 14 14 15 15 16 17 17 18 18 18 19 19 18 17 16 16 15 16 16 16 16 17 17 17 17 17 17 17 17 17 17 17 17 17 17 17
21 20 20 20 19 19 19 19 19 19 19 19 19 19 18 18 18 18 18 17 17 16 16 15 15 15 15 15 15 16 16 15 15 15 15 15 15 15 15 15 15 14 14 14 14 14 14 13 13 13 13 13 14 14 15 16 17 17 17 17 17 16 16 15 15 14 13 14 15 16 16 16 16 16 16 16 16 16 16 16 17 17 17 17 17
20 20 20 19 19 19 19 19 19 19 19 19 19 19 19 19 18 18 17 17 17 16 16 15 15 14 15 15 15 15 16 15 15 15 15 15 15 15 14 14 14 14 14 14 13 13 13 13 13 13 13 12 13 13 13 14 15 16 16 16 16 16 16 16 16 14 13 12 14 15 15 15 15 16 16 15 15 16 16 16 17 17 17 17 17
20 20 19 19 19 19 19 19 19 19 19 19 19 19 19 19 18 18 17 17 16 16 16 15 15 14 14 15 15 15 15 15 14 14 15 15 14 15 14 14 14 14 14 14 14 13 13 13 13 13 13 13 12 12 12 13 14 14 15 15 15 15 16 16 16 16 14 13 13 14 15 15 15 15 16 16 16 16 16 16 17 17 17 17 17
19 19 19 19 19 19 19 19 19 19 19 19 19 19 19 19 18 18 17 17 16 16 16 15 15 14 14 14 14 14 15 15 14 14 14 14 14 14 14 14 14 14 14 14 14 13 13 13 13 13 13 12 12 12 12 12 13 13 14 14 14 14 14 14 14 14 14 14 14 14 15 15 15 15 15 15 16 16 16 16 17 17 17 17 17
19 20 20 19 19 19 19 19 19 19 19 19 19 19 19 19 19 18 17 17 16 16 16 15 15 14 14 13 13 14 14 14 13 14 14 14 14 14 14 14 14 14 14 14 14 13 13 13 13 13 12 12 12 12 12 13 13 13 13 13 13 13 13 13 13 13 14 14 14 14 14 14 15 14 15 15 15 15 16 16 16 17 17 17 17
19 19 19 19 19 19 19 19 18 19 19 19 19 20 20 19 19 19 18 17 17 16 16 16 15 14 14 14 13 13 13 13 13 13 13 13 14 14 14 14 14 14 15 15 14 14 14 14 14 13 13 13 12 13 13 14 14 14 14 14 14 14 14 14 14 14 14 14 14 14 14 14 14 14 14 14 15 15 15 16 16 16 16 16 16
19 19 19 19 19 19 19 19 19 19 19 19 20 20 19 19 19 19 19 18 17 17 16 16 15 14 14 14 13 13 13 13 13 13 13 13 13 14 14 15 15 15 16 16 16 15 16 16 15 14 14 14 14 14 15 15 15 15 14 14 14 14 14 14 14 14 14 14 14 14 14 14 14 14 14 14 14 15 15 15 15 15 16 16 16
Height
789 790 793 794 797 798 792 790 791 792 794 795 796 798 799 800 801 803 805 806 807 809 810 812 813 814 816 817 818 819 821 822 823 825 826 826 827 828 828 829 830 831 832 832 833 834 834 834 835 835 836 836 836 835 835 835 835 835 835 835 834 834 834 834 833 833 832 831 830 829 828 827 826 826 826 825 824 824 823 822 822 821 821 820 820
788 788 791 792 795 797 793 790 791 791 792 794 795 796 798 799 800 802 803 805 806 807 809 810 811 812 813 814 816 818 819 821 822 823 824 825 826 827 827 828 829 830 831 831 832 833 833 834 834 834 835 835 835 835 835 835 835 835 835 834 835 835 834 834 834 833 832 831 830 829 828 826 825 825 825 824 824 824 823 822 822 821 821 820 820
789 788 788 789 790 793 792 790 790 791 792 793 794 795 797 799 800 801 802 803 804 806 807 808 810 811 812 814 815 817 818 820 822 822 824 825 825 826 827 827 828 829 830 830 831 832 832 833 833 833 834 834 834 835 835 835 835 835 835 835 835 835 834 833 833 833 832 832 831 831 830 829 827 825 824 824 824 823 823 822 822 821 821 820 819
789 787 787 787 788 790 790 790 790 790 791 792 793 795 796 797 799 800 802 802 803 804 806 807 809 811 812 813 815 816 818 819 821 822 823 824 825 825 825 826 827 828 829 829 829 830 831 832 832 832 832 833 834 834 835 834 834 834 834 835 835 835 834 833 833 833 832 832 832 832 831 832 833 828 824 824 823 823 823 822 821 820 819 819 818
786 786 785 785 786 788 788 789 790 790 791 792 793 794 795 796 798 799 800 801 802 803 805 807 809 810 811 813 814 816 817 818 819 820 821 822 823 824 824 825 826 827 827 828 828 829 830 831 831 831 831 832 833 833 834 834 834 834 834 835 835 835 834 834 833 832 832 831 831 832 833 835 835 830 827 825 823 823 823 821 821 820 818 818 817
783 783 783 783 784 786 788 789 790 790 791 792 793 794 795 796 797 798 799 800 801 802 804 806 807 808 809 811 812 813 815 816 817 818 819 821 822 823 823 824 825 826 826 826 827 828 829 829 830 830 831 832 832 833 833 833 833 834 834 835 835 835 834 834 833 832 831 830 830 831 833 834 832 829 830 829 824 822 822 821 820 819 818 816 816
782 782 781 782 783 785 788 791 791 791 791 792 793 794 795 796 796 797 798 799 800 801 802 804 805 807 807 808 809 811 812 813 815 817 818 819 821 822 822 823 824 824 825 825 826 827 828 828 829 829 830 831 832 832 832 833 833 834 834 834 834 834 834 834 833 832 831 831 830 830 830 831 830 829 831 831 829 824 821 820 819 818 817 816 815
781 781 781 781 783 784 786 789 792 793 793 792 793 793 794 795 796 796 797 798 798 799 800 802 803 804 806 807 808 809 810 811 813 815 817 818 819 820 821 821 822 823 823 824 825 826 826 827 828 828 829 830 831 831 832 832 833 833 833 834 834 834 834 833 833 832 831 831 830 830 830 829 830 829 829 829 830 829 824 820 819 818 817 816 816
779 780 780 781 782 784 785 787 790 793 793 793 792 793 793 794 795 795 796 797 797 798 799 800 801 802 804 805 806 807 808 810 812 813 815 816 817 818 819 820 821 821 822 823 824 824 825 826 827 828 828 829 830 830 831 832 832 833 833 833 833 833 833 833 832 832 831 831 830 829 829 829 828 828 828 827 827 829 827 822 819 818 817 816 816
778 778 779 781 781 784 785 786 789 792 793 793 792 791 792 792 793 794 795 795 796 797 797 798 799 800 802 803 804 805 806 808 810 812 813 814 815 817 817 818 819 820 821 822 823 823 824 825 826 827 828 828 829 830 830 831 831 832 832 832 832 832 832 832 832 831 831 830 830 829 829 828 828 827 827 826 825 826 826 823 820 820 818 816 815
779 778 779 781 781 783 784 785 791 796 794 792 791 790 791 791 792 793 793 794 794 795 796 797 798 799 800 801 802 803 804 805 807 809 811 812 813 815 816 817 818 819 820 821 821 822 823 824 825 826 827 828 828 829 829 830 830 831 831 831 831 831 831 831 831 831 830 830 829 829 828 828 827 827 826 826 825 824 825 823 821 820 819 817 815
779 778 779 781 782 782 783 785 792 796 793 790 790 790 790 790 791 791 792 793 793 794 795 795 796 797 798 800 801 802 803 803 805 806 808 810 811 813 814 815 816 817 819 819 820 821 822 824 824 825 826 826 827 828 828 829 830 830 830 830 831 830 831 831 830 830 830 829 829 828 828 827 827 826 825 825 824 823 823 823 821 820 819 817 815
780 779 780 781 782 782 783 786 791 791 789 788 788 788 788 789 790 790 791 792 793 794 794 795 795 796 797 798 799 801 802 802 803 804 806 807 809 811 812 813 814 815 816 818 818 820 821 822 823 824 825 825 826 827 827 828 829 829 829 829 829 830 830 830 830 830 829 828 828 828 827 827 826 826 825 824 824 823 823 822 821 820 819 817 815
780 780 779 779 781 782 783 785 787 786 785 786 787 787 787 788 789 790 791 792 793 794 794 794 795 795 796 797 798 799 800 801 802 803 804 806 807 809 810 811 812 813 814 816 817 819 820 821 822 823 824 824 825 826 826 827 828 828 828 828 829 829 829 829 829 829 828 828 827 827 826 826 826 825 825 824 823 823 822 822 821 820 819 817 816
779 780 779 778 779 781 782 782 783 783 783 784 785 786 786 787 789 790 791 792 794 794 795 795 795 796 796 796 797 798 799 800 801 802 803 804 805 807 808 809 810 812 813 814 816 817 818 820 821 822 822 823 824 825 825 826 827 827 827 828 828 828 828 828 828 827 827 827 826 826 826 825 825 825 824 824 823 823 822 821 821 821 821 818 816
780 781 780 779 779 780 780 780 781 782 782 783 784 785 786 787 789 791 792 793 794 795 795 795 795 796 796 796 796 796 797 798 799 800 801 802 804 805 806 808 809 810 812 813 815 816 817 818 820 820 821 822 823 823 824 825 825 826 826 826 826 827 827 827 827 827 826 826 826 825 825 824 824 824 824 823 822 822 821 821 820 820 822 821 819
780 780 780 779 779 779 780 780 780 781 782 782 783 784 786 787 789 791 792 794 795 795 796 796 796 796 796 796 796 795 795 796 797 798 799 801 802 803 805 806 807 809 810 812 813 814 816 817 818 819 820 820 821 822 823 823 824 824 824 825 825 825 826 825 826 825 825 825 825 824 824 823 823 823 822 822 822 822 821 820 820 819 819 821 821
780 779 780 780 779 780 780 780 780 780 781 782 783 784 785 786 788 790 791 792 792 793 796 798 797 797 796 796 796 795 794 795 795 796 798 799 800 801 803 804 806 807 809 810 812 813 814 815 816 817 818 819 820 820 821 822 822 823 823 823 824 824 824 824 824 824 824 824 824 823 823 822 822 822 821 821 821 821 820 819 819 819 818 818 819
781 780 780 780 779 780 780 780 781 780 781 781 782 783 783 786 788 788 789 789 789 791 793 795 796 797 797 795 795 794 793 794 794 795 796 797 798 799 801 802 804 806 807 808 809 810 812 813 814 815 816 817 818 819 820 820 820 821 821 822 822 822 823 823 823 823 823 823 823 822 822 822 821 821 820 821 820 820 819 819 819 818 818 818 817
782 781 781 780 780 781 780 780 781 780 781 781 781 782 783 785 786 786 786 787 788 789 790 792 793 794 795 794 793 793 793 793 793 794 795 795 797 798 799 801 802 804 805 806 807 808 810 811 812 813 814 815 816 817 818 818 819 819 820 820 820 821 821 821 822 822 822 822 822 821 821 821 821 820 820 820 820 819 819 818 818 818 818 818 817
782 781 781 780 780 781 780 781 781 781 782 782 782 783 783 784 785 785 785 786 787 788 788 789 790 792 793 792 791 791 791 792 792 792 793 793 795 796 798 799 801 802 803 804 805 806 807 808 809 810 811 813 814 815 816 817 817 818 818 818 819 819 819 820 820 820 820 820 820 820 820 820 820 820 820 819 819 819 818 817 818 817 817 817 817
782 781 781 780 780 781 781 781 782 782 783 782 783 783 783 784 784 784 784 785 787 788 787 787 788 791 791 790 790 790 789 790 791 791 792 792 794 795 796 798 799 800 801 802 803 804 805 806 807 808 809 810 811 812 813 814 815 816 816 816 817 817 818 818 818 818 818 818 818 818 818 818 818 818 818 819 819 818 818 818 817 817 817 817 816
781 781 781 781 781 781 781 782 782 782 783 783 783 783 783 783 783 783 784 784 786 789 790 790 789 790 790 790 790 789 788 788 789 790 791 791 792 793 795 796 797 798 799 800 801 802 803 804 805 806 807 808 809 809 811 812 813 814 814 814 815 815 816 816 816 816 816 816 816 816 816 816 815 815 815 817 818 818 817 817 817 817 817 816 816
781 781 781 781 781 781 782 782 782 782 783 783 783 783 783 783 783 783 784 784 785 787 790 790 789 788 789 789 790 792 792 791 790 790 790 790 791 792 793 794 795 796 797 798 799 800 801 801 802 803 804 805 806 807 809 809 810 811 812 812 813 813 814 814 814 814 814 814 814 814 814 814 814 814 814 814 816 817 816 817 817 817 816 816 815
782 782 782 782 782 782 783 783 783 783 783 783 782 783 783 783 783 783 783 783 783 784 785 786 786 786 787 787 788 791 793 793 790 788 787 788 789 790 790 791 792 793 795 796 797 797 798 799 800 801 802 803 804 805 806 807 808 809 809 810 811 811 812 812 812 812 812 813 813 813 813 813 813 813 813 814 815 815 816 816 816 816 815 815 815
782 782 783 783 783 783 783 783 783 783 783 783 782 782 782 782 782 782 783 782 782 782 781 782 783 783 782 782 783 786 787 786 786 785 785 786 786 787 788 789 790 791 792 793 794 795 796 796 797 798 799 800 801 803 804 805 805 806 806 807 808 808 809 809 809 810 810 811 811 811 812 812 812 812 813 813 814 814 814 814 813 813 813 813 814
781 782 783 784 784 784 783 783 783 782 782 782 782 781 781 781 781 781 782 781 781 781 779 779 780 779 778 779 781 783 783 783 783 784 784 784 785 785 786 787 787 788 789 790 791 792 793 794 795 795 796 797 798 800 801 802 803 803 804 805 805 806 807 807 807 807 808 809 809 809 809 810 810 811 811 812 812 813 812 812 811 811 811 812 812
781 782 784 784 784 784 783 783 782 782 782 782 782 781 780 780 780 780 780 780 780 780 778 778 777 777 776 777 779 781 781 781 781 781 782 782 783 783 784 785 786 786 786 787 788 789 790 791 792 793 794 795 796 797 798 799 800 801 801 802 803 803 804 804 804 805 806 807 807 807 807 808 808 809 810 810 810 811 810 810 810 810 810 810 811
782 783 783 783 784 783 783 783 782 782 782 781 781 781 780 780 779 779 779 779 779 778 778 777 776 775 775 776 776 777 778 779 779 779 779 780 780 781 783 784 784 784 784 785 785 786 787 787 789 790 791 792 793 794 794 796 797 798 799 799 800 801 801 801 802 803 804 805 805 805 805 806 807 807 808 808 809 809 808 808 809 809 809 809 810
782 783 783 783 783 783 783 783 782 782 781 781 781 780 780 779 778 777 777 777 777 777 777 777 776 775 775 775 775 775 776 776 777 777 777 778 779 781 782 782 782 781 781 782 782 783 783 784 785 786 788 788 789 790 791 793 794 795 796 797 797 798 799 799 800 801 802 802 803 803 804 805 805 805 806 807 807 807 806 807 807 808 808 808 808
781 782 782 782 782 782 782 782 782 782 781 780 780 780 780 779 777 777 776 776 776 776 776 776 775 775 775 774 774 774 774 774 775 775 775 776 778 779 779 778 778 779 779 779 780 780 780 781 782 783 784 785 786 787 788 790 791 792 793 794 794 795 795 795 796 797 799 800 801 801 802 803 804 804 805 806 806 806 806 806 806 807 807 807 807
780 781 781 782 782 781 782 781 781 781 780 780 780 779 779 778 777 777 775 775 775 775 775 775 774 774 774 773 773 773 773 773 773 773 773 774 776 776 775 775 776 777 778 778 778 777 777 778 779 779 781 781 782 784 785 786 788 789 790 791 791 792 792 794 795 795 797 798 799 800 801 802 802 802 804 804 804 805 805 806 806 806 806 807 807
779 780 780 781 781 780 781 781 781 781 780 779 779 779 778 777 777 777 775 775 774 774 774 773 773 773 772 772 772 771 771 772 771 771 771 772 773 772 772 773 773 774 775 775 775 775 775 775 775 776 777 778 779 780 782 783 784 785 787 788 788 790 792 793 795 797 797 797 797 799 799 800 801 801 803 803 804 804 805 805 805 806 806 806 806
778 779 779 780 779 780 781 780 780 780 779 779 778 778 778 777 777 776 775 775 774 773 773 772 771 771 771 771 770 769 770 770 769 769 769 769 770 769 770 770 770 770 771 771 772 772 773 773 773 773 774 774 775 777 778 780 781 783 785 785 786 788 789 790 792 796 797 796 795 797 797 798 800 800 801 802 803 804 804 805 806 806 807 807 807
778 778 778 779 779 780 780 780 780 780 779 779 778 778 778 777 777 776 775 775 774 773 772 771 771 770 769 769 769 768 767 767 767 767 767 767 767 767 768 768 768 768 768 768 769 770 770 771 770 770 770 771 772 773 775 776 778 780 782 782 783 785 787 788 790 792 794 794 794 794 795 797 798 799 800 802 803 804 805 806 806 807 808 808 808
775 776 777 778 778 779 779 779 780 780 779 779 778 777 777 777 776 776 775 774 774 773 772 771 770 769 768 768 768 767 766 765 765 765 764 765 765 765 766 766 765 766 766 766 767 767 768 769 770 769 768 768 769 770 771 773 775 777 778 779 780 782 784 785 787 789 791 792 792 792 794 795 797 798 800 801 802 803 804 806 807 808 809 809 810
774 775 776 776 777 778 778 779 779 779 779 778 778 777 777 777 776 776 775 774 773 772 772 771 770 769 768 767 767 766 765 764 763 763 762 762 762 762 763 763 764 764 764 765 765 766 767 769 769 769 768 767 767 767 768 770 772 774 775 776 777 779 781 783 785 787 788 789 790 791 792 793 795 797 798 800 801 802 804 805 806 808 809 810 811
773 775 775 776 777 778 778 779 779 779 779 778 778 778 777 776 776 775 774 774 773 773 772 771 770 769 768 767 766 765 764 763 762 761 760 760 760 760 760 761 762 762 762 763 764 764 766 767 767 767 766 766 766 766 767 768 769 771 772 773 774 776 778 781 782 784 786 786 788 789 790 792 793 795 797 799 800 801 803 804 805 807 809 811 812
772 774 775 776 777 778 779 779 779 779 779 778 778 777 777 776 776 775 775 774 773 773 772 771 771 769 768 767 766 765 763 762 761 760 759 758 758 758 758 759 760 760 760 761 762 763 764 764 764 764 763 764 764 765 765 766 766 768 769 771 772 774 775 778 780 781 783 785 786 787 789 791 792 793 796 798 799 800 802 803 805 806 808 811 812
773 774 775 776 777 778 779 779 779 779 778 778 778 777 777 776 775 775 775 774 774 774 772 772 771 769 768 767 766 765 763 762 761 760 758 757 757 756 757 757 758 758 759 759 760 761 761 762 762 761 761 762 762 762 763 763 764 766 767 768 771 773 774 776 778 779 780 782 784 785 787 789 791 792 795 797 799 800 801 803 805 806 809 811 812
773 774 775 776 778 778 779 779 779 779 778 778 778 777 777 776 776 776 775 775 775 774 773 773 771 770 769 768 766 765 764 762 761 760 758 757 756 756 756 756 756 757 757 758 759 759 759 760 760 759 759 759 759 760 760 761 762 764 765 766 769 770 771 772 774 777 778 779 780 782 784 786 789 792 794 797 799 801 802 804 806 807 809 811 812
773 774 775 777 778 778 779 779 779 779 779 778 778 778 777 777 777 776 776 776 776 775 774 773 772 771 770 769 767 766 765 763 762 760 759 757 756 756 755 755 755 756 756 757 758 758 759 759 758 758 758 758 758 759 759 761 762 762 764 766 767 768 769 770 771 773 775 777 778 780 782 784 787 790 793 795 798 802 803 805 806 809 811 812 813
773 775 776 776 778 779 779 779 780 779 779 779 779 778 778 778 778 777 777 777 776 776 775 774 773 772 771 770 769 767 766 764 763 761 760 759 757 757 756 755 756 756 756 757 758 758 759 759 759 760 759 759 759 760 759 760 760 761 763 765 766 768 771 772 772 772 773 774 776 779 781 783 786 790 793 796 799 802 805 806 807 810 812 813 815
773 775 775 776 778 779 779 780 780 780 780 779 779 779 779 779 778 778 778 777 776 776 776 775 774 773 772 771 770 768 767 766 764 763 761 760 759 759 758 757 757 757 757 758 759 760 760 760 761 762 762 761 761 761 760 759 759 761 763 764 765 768 771 773 774 775 774 772 773 777 779 781 786 791 794 798 800 803 807 809 809 811 813 814 816
773 775 776 777 778 778 780 781 780 780 781 780 780 780 779 779 779 779 778 777 777 776 776 776 775 774 773 772 771 770 769 767 766 765 763 762 762 761 760 760 760 759 760 760 761 762 762 762 763 764 765 765 763 762 762 761 761 762 763 766 767 766 768 772 775 780 781 774 767 770 777 781 786 792 795 800 802 804 809 812 812 812 814 815 817
773 775 776 777 778 779 780 780 781 781 781 781 781 780 780 779 780 779 779 778 777 777 777 777 777 776 775 774 773 771 770 769 768 767 766 765 764 763 763 763 763 763 764 764 764 764 764 765 765 766 767 768 766 764 764 764 763 763 765 770 772 768 769 774 778 784 793 784 765 762 774 783 788 793 797 802 806 808 811 814 814 814 816 818 819
774 775 777 778 779 780 780 781 781 782 781 781 781 781 780 780 780 780 780 779 778 778 778 779 778 778 777 776 774 773 772 771 770 770 769 768 768 767 766 766 766 767 767 767 767 767 767 768 768 769 771 771 770 769 768 768 768 767 768 772 775 774 775 779 779 785 797 794 775 767 778 788 793 797 800 805 810 813 814 815 816 817 818 820 821
775 775 777 778 779 780 781 781 781 782 782 782 782 782 782 782 781 782 781 781 780 780 780 780 780 780 779 778 777 776 774 773 773 772 771 771 771 770 770 769 770 770 770 770 771 771 771 772 773 774 775 775 774 774 774 775 774 773 773 774 778 780 782 783 783 785 792 794 787 784 789 795 799 802 805 809 813 815 816 817 818 819 821 822 823
775 776 777 778 779 780 781 781 782 782 782 782 782 782 783 782 782 783 783 782 782 782 782 782 782 781 781 780 779 778 777 776 775 774 773 773 773 774 773 773 773 773 773 773 774 774 775 776 777 778 778 777 778 780 781 782 780 780 781 781 783 786 786 787 789 791 791 792 793 794 797 800 804 807 810 813 816 817 818 819 821 821 823 824 824
776 777 778 778 780 781 781 782 783 783 783 783 783 783 783 783 783 783 783 784 784 783 783 784 783 783 783 782 782 781 780 780 778 777 776 776 777 777 777 777 777 778 778 778 777 778 779 779 779 781 782 782 784 786 787 787 786 786 787 788 789 791 791 792 795 795 794 795 797 799 802 805 808 811 814 816 818 819 820 821 823 824 825 825 825
776 777 778 780 781 782 782 783 783 783 784 784 783 784 784 783 782 783 783 784 784 784 785 785 785 785 785 784 784 784 783 783 782 781 780 780 780 781 781 781 782 782 783 783 783 784 785 784 783 784 787 788 790 791 791 792 792 792 793 793 794 796 797 799 800 799 798 800 801 803 807 810 812 814 817 818 820 821 822 823 825 826 827 827 828
Wind_Speed
15 17 15 14 9 10 19 23 22 22 21 22 24 23 22 22 23 23 23 24 23 22 21 22 22 21 20 20 20 20 19 19 20 19 20 21 18 16 16 15 15 16 16 15 13 11 9 7 7 9 9 8 7 6 4 3 3 4 4 4 5 7 8 8 10 12 12 11 11 12 12 12 12 12 11 10 10 10 10 10 10 9 8 6 6
13 15 15 19 16 14 16 22 23 22 22 23 23 23 24 23 23 22 23 23 23 23 22 23 24 23 22 22 21 21 20 20 21 21 21 22 20 17 16 15 16 17 17 16 15 13 10 8 7 9 9 8 6 6 5 3 3 4 5 6 6 8 11 10 11 11 9 8 7 7 10 9 10 11 11 11 10 9 8 8 10 10 9 7 7
8 10 13 18 19 18 17 19 21 21 22 22 22 22 23 24 23 23 24 23 22 23 22 22 22 22 20 19 20 20 19 19 20 20 21 21 20 17 16 17 17 18 18 16 16 15 12 10 8 8 10 8 6 7 6 5 4 5 5 7 8 10 12 12 12 11 11 10 6 4 4 4 6 8 8 11 11 9 8 9 11 11 9 8 7
9 9 11 15 17 18 17 18 19 20 22 22 22 23 23 23 23 23 24 23 23 23 22 20 19 19 16 14 15 17 16 17 18 18 18 19 18 17 16 18 20 19 18 16 16 16 14 11 10 9 10 9 8 7 8 7 6 6 7 8 10 12 13 12 12 11 12 12 5 2 2 2 3 3 7 11 10 9 11 11 12 11 9 8 6
10 10 10 12 14 17 19 19 18 19 22 22 23 24 23 23 22 21 21 22 23 22 21 20 18 17 15 12 12 13 13 15 18 17 17 17 17 15 16 19 21 19 17 16 16 17 16 13 11 11 11 10 9 9 9 8 7 8 8 10 12 13 13 13 12 9 10 10 8 5 2 2 2 3 6 8 9 10 10 10 10 9 9 8 7
6 9 10 10 14 16 17 17 16 18 21 22 23 24 23 22 21 20 21 21 21 21 20 19 18 17 17 16 15 15 14 15 18 18 18 18 15 13 16 20 21 18 17 16 16 17 18 16 13 12 12 11 11 10 9 8 8 9 10 11 13 14 13 12 11 10 9 8 11 10 6 4 4 4 3 3 9 11 9 10 9 9 10 8 6
2 6 7 9 12 13 12 13 12 13 18 21 22 22 22 21 21 21 22 22 21 21 21 20 19 19 19 19 19 18 17 16 17 18 18 19 16 13 15 19 19 18 17 16 16 17 18 17 15 13 13 12 12 10 9 9 9 10 11 13 13 12 11 10 11 11 9 6 7 9 10 9 8 6 2 2 5 8 10 13 11 11 11 7 6
3 3 3 4 8 13 16 16 10 7 13 19 20 21 21 20 22 24 24 23 22 22 23 22 21 21 20 20 19 19 18 16 16 17 17 18 17 14 14 17 18 18 17 16 16 16 17 16 15 14 14 12 12 11 11 10 10 11 11 12 12 10 9 9 10 9 8 7 7 8 9 9 9 9 8 5 2 3 9 11 11 14 12 7 6
3 3 2 2 5 13 19 19 13 8 8 14 15 18 21 20 21 24 24 23 22 22 23 23 22 21 20 20 19 18 18 16 16 17 17 17 18 16 14 15 17 19 18 17 17 16 17 16 13 14 14 12 12 11 11 11 11 12 13 12 12 11 9 10 9 8 8 8 9 10 10 10 10 9 9 7 3 3 4 5 9 14 13 10 7
3 3 2 2 5 12 16 17 16 14 12 12 12 14 20 21 21 24 24 23 22 22 21 22 22 21 21 20 19 17 16 15 15 16 17 17 18 18 17 16 17 19 19 19 18 17 16 16 15 15 14 13 13 12 11 11 12 13 14 13 13 12 11 9 9 9 9 9 10 11 12 12 10 6 7 7 5 4 3 4 8 9 8 10 9
3 2 3 3 5 9 12 13 13 16 17 15 12 12 16 20 21 22 23 23 22 21 21 21 21 22 21 21 20 19 16 15 15 16 18 18 19 20 20 18 18 18 19 19 19 18 17 17 16 15 14 14 15 14 12 12 12 12 13 13 12 12 11 10 11 10 10 10 11 11 11 11 9 7 9 9 7 5 3 4 8 8 7 9 9
3 2 3 5 5 8 9 9 12 19 19 15 11 10 12 17 21 21 21 22 22 21 20 20 21 22 21 21 21 19 17 16 16 17 18 20 21 21 21 20 20 19 19 19 20 20 19 18 18 16 15 15 15 16 15 14 13 13 13 13 12 12 11 11 11 11 10 11 11 10 9 10 11 11 12 11 10 8 5 4 7 7 6 8 9
3 2 3 5 6 8 10 12 16 19 19 15 11 9 10 13 18 22 21 21 22 21 20 19 21 22 22 22 22 20 18 18 18 18 18 19 20 20 21 21 21 21 21 20 20 21 20 19 19 18 16 14 14 16 16 14 14 14 12 11 11 10 10 10 11 11 10 9 9 9 9 10 12 11 10 9 9 9 7 5 5 5 4 6 8
3 3 3 4 5 8 11 15 17 15 15 16 12 10 11 11 15 21 21 20 21 21 20 20 21 23 23 23 22 21 20 21 20 18 18 19 19 19 20 21 22 22 22 21 20 21 21 19 19 19 16 15 14 15 16 14 14 15 12 11 11 10 9 9 11 12 11 10 9 9 10 11 11 10 8 7 7 7 8 7 5 5 5 6 5
3 4 4 5 6 9 11 13 14 13 14 16 14 12 12 11 14 19 20 20 21 20 20 20 21 22 23 23 23 23 23 23 22 20 19 19 20 20 21 21 22 22 22 21 19 20 21 19 19 20 18 17 16 16 16 16 16 16 14 13 12 12 11 10 10 11 12 12 11 11 11 12 11 9 8 8 8 8 9 9 7 4 4 4 3
4 5 5 5 7 9 11 12 13 13 14 16 16 14 13 13 14 17 19 20 21 20 21 22 22 22 24 24 22 23 24 24 23 22 22 21 21 22 22 22 23 22 22 22 20 20 21 20 20 21 20 19 18 18 19 19 18 18 16 15 15 14 13 12 10 10 11 12 12 11 12 12 11 10 9 8 8 8 7 8 9 6 3 3 3
4 5 5 5 7 9 11 12 12 13 13 15 16 15 14 14 14 15 16 18 19 18 18 20 22 23 24 24 22 22 23 24 24 23 23 23 23 22 22 22 23 22 21 22 21 20 21 21 21 23 22 21 19 20 20 19 19 21 18 17 16 13 11 11 11 10 9 9 10 11 12 12 10 9 9 7 6 7 7 7 9 9 7 3 1
3 4 5 6 8 9 11 13 14 13 13 13 14 15 14 14 14 14 14 16 18 17 16 17 19 22 24 25 24 23 23 24 24 23 21 22 23 22 21 22 22 20 20 22 23 22 22 23 24 25 24 23 21 21 21 20 19 21 19 18 16 13 11 12 12 12 11 10 10 10 9 10 8 7 7 5 4 5 6 7 8 10 9 6 4
4 4 4 5 7 10 12 14 14 13 12 12 12 14 14 14 14 14 14 15 15 16 18 18 19 22 25 26 25 24 23 23 23 22 21 21 22 22 21 22 22 20 20 22 24 25 24 24 25 27 27 26 24 22 22 22 21 21 20 19 16 14 14 14 13 13 12 12 11 9 7 7 7 6 5 4 4 4 6 8 8 9 9 8 7
5 4 4 3 6 9 12 14 14 13 13 13 13 13 13 13 13 14 14 12 12 17 21 21 22 22 22 24 26 25 23 23 22 21 20 21 21 21 21 22 23 22 21 23 25 25 26 26 25 26 27 26 26 26 24 23 23 22 21 18 16 15 16 15 14 13 12 11 11 11 11 8 6 6 6 5 5 5 6 7 8 8 9 8 9
5 5 4 4 6 7 7 10 11 9 9 11 14 13 11 11 11 12 13 13 15 20 21 21 23 23 21 21 24 25 24 23 22 21 21 21 21 21 21 22 23 23 23 23 25 25 25 27 25 23 24 22 23 26 26 25 24 23 21 20 17 16 16 16 15 14 12 11 12 12 12 9 7 8 8 8 7 5 4 4 5 6 6 6 8
5 5 4 4 7 9 10 10 10 8 7 5 7 9 10 11 10 10 12 15 18 20 20 19 20 21 22 22 20 22 25 25 24 23 22 22 22 22 22 22 24 24 24 25 26 25 24 26 27 24 23 21 21 23 25 25 25 23 22 21 19 18 17 16 15 15 14 13 13 11 10 9 8 8 9 9 7 5 3 4 3 4 4 5 6
6 5 4 5 8 10 11 11 11 11 10 8 6 3 3 4 7 8 11 15 17 18 18 18 18 19 22 21 19 20 23 25 25 25 24 24 24 24 24 24 24 25 25 25 26 26 25 26 28 27 26 25 24 24 23 23 22 22 23 22 21 20 19 17 16 16 14 13 12 12 10 10 10 10 9 7 7 6 5 4 4 4 4 5 5
6 5 4 7 8 9 9 9 9 9 8 7 7 5 4 4 2 2 6 8 10 12 13 15 17 18 18 18 18 17 13 14 18 21 23 24 23 24 24 25 26 26 25 25 26 26 26 26 26 26 26 27 29 27 25 24 22 23 24 23 22 21 20 18 17 16 15 13 12 12 11 10 11 12 11 8 7 8 7 5 4 5 5 5 5
6 6 5 6 6 7 8 9 8 8 7 6 7 6 5 5 6 5 4 3 3 4 8 11 12 11 12 13 14 15 12 11 15 19 22 23 21 21 24 26 27 27 27 27 26 27 28 28 26 25 24 26 29 28 26 25 24 25 26 25 23 22 20 18 17 18 17 15 13 13 12 11 11 11 9 7 6 6 6 6 6 6 5 5 5
7 6 5 5 5 6 8 9 8 8 6 5 6 5 5 5 5 6 7 6 5 4 3 5 5 6 11 15 14 14 16 18 19 19 21 23 21 18 21 25 28 29 29 28 28 28 29 30 29 27 25 25 25 27 26 26 26 25 26 25 23 21 20 19 19 20 18 16 15 14 13 12 12 11 9 8 7 7 7 6 5 5 3 3 4
7 6 5 5 5 5 7 8 8 7 6 5 4 4 4 5 5 6 7 7 6 6 6 5 1 5 12 17 15 13 14 17 19 18 19 22 21 16 14 18 23 27 29 30 30 28 29 30 30 30 29 27 25 25 25 26 27 26 24 24 23 21 21 21 21 21 19 17 16 15 13 12 13 12 10 9 8 7 5 4 4 3 3 3 5
6 6 6 6 5 5 6 8 8 7 6 5 4 3 4 4 5 6 6 6 6 4 5 5 2 4 8 11 13 13 13 14 16 17 16 18 21 21 18 15 14 19 25 28 31 31 31 31 31 31 31 29 28 26 26 26 27 26 25 24 22 21 22 23 22 21 20 17 15 14 13 12 12 12 10 9 8 7 5 3 4 4 3 3 4
6 6 6 6 6 5 6 7 6 6 6 5 4 3 3 3 4 5 5 5 5 3 3 3 3 5 6 5 6 10 12 14 15 15 13 14 17 19 20 18 13 11 15 21 26 30 32 32 33 33 31 30 30 30 29 28 27 26 25 25 23 22 23 23 23 21 18 16 14 13 12 12 11 11 11 10 9 8 7 6 5 5 4 4 4
7 7 6 6 6 6 6 7 6 6 6 5 4 3 3 4 4 5 6 5 4 3 2 2 2 4 4 4 5 7 9 12 15 16 15 14 12 10 13 19 20 16 13 14 18 24 29 30 32 33 33 32 32 32 32 30 29 27 25 25 24 23 22 21 22 21 19 16 14 13 12 12 11 11 11 10 9 8 7 6 5 5 4 4 4
8 7 6 6 6 6 6 7 6 6 5 4 3 2 3 4 5 5 5 5 5 4 3 2 2 3 4 3 4 6 7 8 11 14 15 14 11 10 15 21 24 23 19 13 13 18 24 27 29 31 33 34 34 33 32 31 30 28 26 26 26 25 23 22 22 22 20 17 16 14 13 13 13 13 11 9 7 7 6 4 3 2 3 4 5
8 7 7 6 6 6 6 7 7 6 5 3 2 2 2 3 4 5 5 5 4 4 4 4 3 4 4 3 3 4 6 8 9 11 13 13 12 15 18 19 21 25 24 19 14 15 20 26 29 30 32 35 35 34 32 31 31 29 27 28 28 25 22 21 22 22 20 18 17 16 15 15 14 13 11 8 7 5 3 3 2 0 2 3 5
8 7 7 7 6 7 8 9 8 7 5 3 1 1 2 4 4 3 3 3 3 3 4 4 4 5 5 5 5 5 5 6 8 10 12 13 14 16 19 19 20 23 26 23 18 15 15 21 27 31 32 34 35 35 33 32 31 30 28 28 27 23 21 20 19 18 19 18 17 17 17 15 13 11 9 9 9 7 5 4 3 2 1 2 4
7 8 7 6 7 9 10 10 8 7 5 3 1 1 2 3 2 2 2 3 3 3 4 5 6 6 7 7 7 7 7 6 6 9 11 13 15 16 17 18 18 20 24 26 24 20 16 16 20 26 30 32 33 33 33 33 32 31 29 28 26 24 24 23 21 19 19 18 17 19 19 17 15 12 10 11 11 10 8 7 7 6 5 3 2
8 7 6 7 9 11 10 10 8 6 5 2 1 2 1 1 2 3 3 4 4 4 5 5 6 7 8 8 8 10 10 10 8 8 10 12 14 16 16 17 17 18 21 24 25 24 22 18 16 18 23 28 30 31 32 33 33 31 29 28 27 24 24 24 22 21 21 19 18 20 21 19 17 12 10 12 13 12 11 12 12 12 13 13 14
9 9 9 11 12 13 12 10 7 5 3 2 2 2 2 2 2 4 4 4 4 5 6 6 7 9 9 9 10 11 12 12 11 10 10 11 13 15 16 17 17 17 18 19 21 23 23 20 16 15 17 22 27 30 32 33 33 31 30 29 27 25 24 24 23 23 21 19 19 20 20 18 16 13 12 14 14 14 15 18 19 20 21 21 21
12 14 14 14 15 14 12 9 7 5 4 3 3 4 3 2 3 3 4 5 6 7 8 8 8 9 10 10 12 12 12 11 11 11 11 12 12 13 14 16 17 17 17 17 18 18 18 18 18 18 17 17 22 26 29 31 32 32 30 28 27 26 25 24 24 23 21 21 20 21 20 18 17 16 17 17 16 16 19 23 24 25 24 23 21
15 16 15 15 16 15 12 10 8 7 5 5 4 4 2 2 3 3 4 6 7 8 7 7 7 8 9 10 10 11 11 10 10 10 10 11 11 11 11 13 14 16 17 17 17 16 14 16 21 23 21 19 19 21 24 27 30 31 31 29 29 29 28 26 25 23 21 21 20 19 19 19 19 19 20 20 19 20 24 28 27 27 25 21 18
18 18 17 17 18 16 13 11 9 8 6 5 4 3 3 4 3 4 6 6 6 6 6 6 6 7 7 7 8 8 9 9 8 7 6 7 9 9 9 10 11 12 13 15 16 15 15 16 20 22 23 22 21 20 21 23 25 26 27 28 29 30 29 28 26 25 23 22 21 21 19 18 18 20 22 23 22 24 27 29 29 27 25 20 18
18 18 18 19 19 17 14 12 9 8 6 5 4 4 4 4 4 5 5 5 5 5 5 5 6 7 7 7 7 8 8 7 6 5 4 3 5 7 8 9 9 10 11 13 13 14 14 14 15 17 20 22 22 23 22 22 23 24 25 26 28 30 29 28 27 26 25 24 23 23 21 19 19 22 24 25 26 27 29 29 29 27 23 21 20
17 16 17 20 19 16 14 11 8 7 6 5 5 4 4 4 4 5 5 4 4 5 5 5 6 8 9 9 9 9 9 9 7 5 3 2 1 2 4 5 7 7 8 8 9 10 10 10 11 12 14 16 17 20 20 19 21 25 26 27 30 32 32 31 29 26 25 25 25 25 24 24 24 25 28 29 28 27 28 27 26 25 24 23 23
15 15 19 21 18 15 14 11 8 6 5 4 4 4 4 4 3 4 6 5 4 5 5 5 7 9 10 11 11 11 11 11 11 10 9 8 6 4 3 3 4 5 5 6 6 6 5 3 3 5 7 8 9 12 14 15 18 23 25 28 30 30 30 30 30 27 25 24 24 25 25 27 30 30 30 30 29 26 27 27 26 26 25 23 22
16 18 20 21 17 15 14 12 8 6 5 4 4 4 4 3 3 4 6 4 2 4 6 8 9 9 10 11 11 12 12 13 13 14 14 14 12 10 9 8 7 7 8 9 9 9 9 9 8 6 4 3 4 7 11 15 17 21 25 28 28 26 24 25 25 26 27 28 26 27 29 32 33 33 31 30 29 28 28 28 27 24 22 21 21
19 20 20 19 17 14 13 13 10 8 6 5 4 3 3 3 3 3 3 2 1 4 5 9 10 8 9 10 11 13 14 14 15 16 17 18 17 15 14 13 13 14 15 15 14 14 16 17 16 14 13 12 12 10 9 11 15 20 25 28 27 25 22 21 19 19 25 35 38 36 38 40 37 35 34 32 32 31 28 27 27 25 24 24 23
18 19 19 19 18 16 15 13 11 8 6 4 2 2 3 3 2 3 4 5 6 7 6 8 9 10 10 11 12 14 15 16 17 18 19 19 19 18 18 17 17 18 19 19 19 19 20 21 20 19 17 17 19 20 18 16 17 21 23 22 24 24 22 22 21 16 16 35 51 50 45 45 42 39 38 35 33 32 29 27 28 28 26 25 23
19 19 19 19 19 18 16 13 10 7 5 3 2 2 2 3 5 6 6 7 9 11 12 12 11 12 14 15 15 16 16 17 19 21 21 20 20 20 20 20 20 21 20 20 21 21 21 22 22 22 20 20 24 27 28 27 26 27 26 22 22 27 29 30 32 25 15 25 50 58 51 46 44 42 39 35 32 31 29 26 26 26 24 22 21
19 20 20 20 18 15 14 11 8 6 5 4 4 5 5 6 8 9 9 9 13 16 17 15 13 13 16 18 18 18 19 20 21 22 23 23 22 21 21 21 20 20 20 20 21 21 22 22 22 22 22 23 26 29 31 33 34 36 36 34 34 37 39 38 42 40 29 30 46 55 50 45 43 41 39 35 31 30 29 28 27 26 25 23 22
20 21 21 19 17 14 12 10 7 4 4 4 4 5 6 8 10 11 11 14 18 19 17 14 13 13 16 19 20 21 22 22 22 23 24 24 23 22 22 21 19 19 20 20 20 20 21 21 21 22 23 25 27 29 29 31 34 38 40 41 39 39 41 41 43 45 40 38 44 47 44 41 40 38 36 34 31 30 29 28 27 26 25 24 23
20 20 18 17 16 14 12 9 7 5 5 5 5 5 5 6 8 10 12 14 16 16 14 13 12 13 15 19 21 23 24 24 24 26 26 25 24 22 22 21 20 20 22 23 23 22 22 23 23 23 25 26 27 27 27 30 34 37 38 39 38 38 40 40 40 40 40 40 41 41 39 38 36 34 33 31 29 29 28 27 26 25 24 23 22
20 19 17 17 15 13 11 9 7 7 6 5 5 5 5 5 8 12 14 14 14 13 12 12 12 12 14 16 18 19 21 23 25 28 30 30 28 25 24 24 23 24 26 28 29 29 29 31 32 31 32 33 32 31 32 35 38 39 39 39 39 39 39 38 37 38 38 37 36 36 34 33 32 31 29 27 27 27 27 26 25 23 22 22 21
20 20 18 16 14 11 10 9 8 7 7 7 7 7 7 6 10 16 16 14 13 13 13 13 12 12 13 14 15 16 18 22 25 27 30 32 32 31 30 30 30 32 34 35 36 36 36 38 40 39 38 37 36 35 35 36 37 38 39 39 37 35 34 33 33 35 34 32 31 31 29 28 29 27 25 25 25 26 26 25 24 23 22 21 20
Wind_Direction
141 150 166 166 186 195 160 155 161 167 177 180 182 186 189 193 195 196 198 199 199 195 194 196 194 191 192 199 204 205 205 204 208 211 205 201 201 202 202 201 212 217 214 214 206 197 195 196 210 212 210 216 229 246 253 258 251 245 260 277 296 297 289 289 292 294 293 291 289 293 300 293 285 288 285 287 299 302 291 283 287 293 294 298 308
147 164 182 172 179 198 168 153 156 161 174 181 182 185 187 192 195 197 199 202 204 201 196 197 198 195 194 199 204 204 203 201 204 207 202 201 201 203 208 204 213 222 217 214 208 200 199 202 211 213 209 215 230 250 253 243 250 256 269 281 287 292 292 291 293 291 288 296 302 310 317 307 287 281 280 285 295 298 287 286 298 303 296 290 307
164 177 187 182 184 188 171 159 160 160 169 180 185 186 188 192 195 196 200 204 207 206 203 202 203 200 197 200 204 204 204 202 204 204 203 205 203 204 212 208 212 222 219 212 206 200 200 201 207 212 212 219 233 245 245 235 248 257 267 279 286 293 291 291 298 290 276 286 310 310 309 332 309 287 291 297 294 290 292 300 307 310 303 292 305
176 184 188 188 184 183 176 168 165 163 166 174 181 187 192 197 199 200 202 205 206 208 211 210 206 204 202 202 204 205 204 202 201 201 203 205 205 210 214 209 213 219 215 210 204 200 202 203 208 215 214 224 236 239 240 241 253 261 265 271 278 284 285 290 303 302 283 276 288 313 293 358 326 301 318 315 307 300 299 307 311 315 313 297 304
175 183 190 186 178 181 183 177 170 168 171 176 179 185 194 200 203 206 207 208 207 208 212 211 207 204 201 196 196 199 197 196 198 199 201 203 206 214 213 208 212 215 211 210 206 202 204 206 210 218 219 226 236 238 241 249 258 265 272 275 272 272 277 288 299 314 308 277 255 265 326 356 279 307 332 319 319 317 309 316 322 328 329 312 310
180 187 187 180 179 180 180 180 174 171 177 182 183 185 192 198 203 207 209 210 210 210 209 208 207 203 197 189 186 188 185 189 198 200 204 204 204 212 212 207 210 212 211 213 211 206 206 208 209 215 221 226 232 238 242 250 260 268 276 275 270 267 271 282 289 302 319 291 260 259 271 278 275 315 346 310 321 324 324 334 337 339 339 330 326
180 198 191 174 175 162 154 173 173 166 175 181 184 186 191 197 200 204 208 208 210 211 209 207 208 205 202 199 196 194 191 195 203 205 209 208 203 206 209 207 210 213 214 216 216 211 207 209 211 212 221 227 230 240 245 251 263 273 278 275 270 266 259 267 284 294 304 298 280 276 276 278 283 293 276 275 315 319 327 337 345 348 348 350 354
144 180 174 152 161 150 154 176 183 160 168 176 184 190 193 196 199 202 203 205 209 211 210 211 212 211 208 206 203 203 204 206 209 211 215 213 207 206 207 209 212 214 217 219 217 213 208 209 213 217 223 227 230 238 245 252 263 271 279 274 261 251 248 265 281 287 292 296 307 311 302 290 284 279 274 275 263 292 319 329 338 342 346 354 353
137 147 120 96 141 153 163 177 188 198 186 176 182 192 196 196 197 200 202 203 206 208 210 214 217 218 215 211 208 208 210 211 214 217 217 216 213 210 207 211 215 214 217 220 216 212 209 210 216 223 226 224 224 232 239 250 259 265 275 268 246 242 255 272 275 272 283 294 303 310 310 304 298 287 274 267 239 249 292 307 323 333 339 344 344
127 128 120 96 121 146 161 172 187 213 218 195 184 186 192 196 196 200 203 204 204 206 210 214 217 219 219 217 216 214 213 211 214 218 218 217 218 214 208 210 216 218 220 220 215 213 215 217 222 228 230 227 225 229 236 250 260 266 271 261 246 252 263 265 264 268 280 287 296 302 302 300 302 296 271 258 250 255 262 280 300 312 319 327 340
138 141 133 121 131 153 164 167 186 211 215 202 190 183 186 194 197 199 203 204 203 205 209 213 215 218 220 219 219 219 218 214 214 217 216 216 218 216 212 212 216 221 224 222 217 217 222 226 229 231 232 233 233 232 235 248 261 267 269 258 249 256 265 264 263 268 275 279 285 293 299 301 300 297 287 275 261 253 251 277 296 300 293 303 330
135 154 139 137 159 173 165 162 188 203 203 197 196 191 183 193 199 199 202 204 205 206 208 212 214 215 219 219 218 219 218 214 214 217 217 215 217 217 216 218 221 224 229 227 220 221 227 230 231 231 232 238 239 235 235 242 253 264 268 260 252 256 264 267 264 264 272 277 278 279 293 303 302 304 301 287 270 265 263 268 296 308 296 301 322
131 162 165 161 176 178 163 168 189 197 196 195 205 204 189 195 202 201 203 205 207 208 209 212 213 213 216 217 217 218 216 211 211 215 216 214 214 215 218 222 224 226 230 231 226 225 229 231 230 229 231 240 242 235 233 236 245 260 267 256 250 255 263 268 265 263 270 280 281 278 285 296 300 308 311 295 277 270 267 268 292 303 284 303 320
132 157 181 178 183 179 168 173 184 190 193 198 212 220 208 204 203 203 205 206 208 211 211 213 216 215 216 216 217 217 214 211 211 212 212 212 213 216 221 224 224 227 230 233 231 228 231 234 230 228 231 241 240 228 226 233 244 253 254 244 243 250 259 268 265 260 267 279 284 283 288 297 302 305 306 294 279 266 263 265 288 305 288 293 310
129 150 178 196 192 181 175 175 178 183 193 202 212 226 227 217 206 205 206 205 208 213 214 217 219 219 218 218 217 217 216 214 213 213 213 212 214 218 224 225 224 227 230 233 235 231 232 236 233 230 234 242 238 225 228 240 246 245 245 245 250 254 257 264 263 261 267 275 282 285 289 296 298 295 294 288 277 271 272 276 281 291 297 303 308
135 146 168 194 187 173 179 187 186 186 197 205 210 223 233 228 216 214 214 211 211 214 218 221 223 224 222 220 217 216 218 218 215 216 216 216 217 219 223 224 225 228 230 233 234 231 231 234 235 234 236 243 241 232 236 245 243 240 245 253 258 259 256 256 260 268 273 274 278 284 288 295 291 280 279 279 275 274 275 280 275 258 257 304 324
145 149 157 177 183 176 181 191 196 194 197 206 214 225 234 233 225 223 228 226 218 217 224 228 227 225 223 222 219 214 215 218 217 217 218 219 220 221 222 223 224 228 230 231 231 229 228 230 233 236 238 242 241 234 235 242 242 242 248 256 259 259 254 252 257 266 270 270 275 283 288 293 292 277 272 273 276 273 263 265 266 254 244 250 302
160 157 152 162 179 184 186 196 207 208 206 211 221 231 236 235 229 226 234 232 221 217 227 235 232 228 224 222 220 217 213 216 219 219 218 218 219 219 218 219 221 226 228 228 228 228 229 229 231 236 239 240 240 233 230 236 241 241 248 257 258 254 254 256 257 259 263 267 276 287 288 291 294 278 261 255 261 265 257 251 252 252 249 243 231
159 160 163 168 175 182 190 201 210 212 214 219 225 232 238 238 231 226 230 233 227 223 227 230 227 226 226 223 221 220 216 215 218 218 217 217 217 214 214 215 219 226 226 223 224 227 230 231 234 237 239 240 240 233 229 233 238 241 248 257 256 251 254 258 258 261 265 266 269 274 281 291 292 269 243 239 256 267 264 255 249 250 253 252 246
157 156 160 164 166 177 190 202 209 213 217 220 221 224 232 237 236 232 232 230 229 229 230 229 224 222 225 224 222 221 220 218 216 215 215 215 215 215 214 215 219 225 225 221 223 227 230 233 236 236 235 238 239 233 230 232 236 242 246 250 251 248 251 255 260 265 266 266 266 266 272 280 275 259 251 251 265 281 272 256 254 257 254 252 252
148 145 142 130 130 135 154 179 192 201 209 215 220 223 228 234 236 236 234 230 229 231 232 231 229 227 225 223 222 220 220 221 218 216 216 213 215 218 220 221 222 223 223 224 227 229 230 233 235 231 227 231 234 231 231 233 237 240 242 244 245 243 246 253 258 261 263 269 273 268 266 273 276 272 268 259 258 267 267 255 256 256 247 245 249
140 137 133 115 109 103 102 116 125 117 110 142 196 215 224 233 238 235 232 233 233 233 234 236 238 239 232 226 227 225 221 220 219 218 219 217 217 219 220 223 225 225 226 227 229 231 232 232 230 228 226 227 228 226 227 232 236 238 239 240 241 240 244 250 252 255 261 268 271 267 263 271 275 272 273 274 263 250 259 269 249 228 231 243 249
130 127 124 113 109 105 101 100 98 93 89 87 93 120 186 228 244 243 238 237 234 229 229 230 235 243 241 236 238 235 225 218 216 217 219 221 222 222 220 222 224 227 229 230 231 232 232 230 228 229 232 231 228 226 225 227 231 234 236 237 238 240 243 248 249 254 262 263 262 260 259 262 257 243 239 257 269 272 281 272 247 245 264 272 265
126 124 124 121 116 109 104 102 97 90 84 81 75 64 53 45 23 279 262 253 240 228 224 225 227 234 242 247 257 261 247 225 220 221 220 222 225 226 224 223 224 226 227 228 231 233 233 230 227 228 231 232 232 231 231 232 231 233 235 236 238 239 241 246 249 251 254 255 252 249 246 250 251 237 221 226 259 279 278 259 263 290 297 285 272
132 132 129 126 122 114 112 111 106 97 88 83 77 67 49 38 40 33 10 341 300 251 238 239 239 237 238 244 257 265 258 237 227 226 223 222 227 230 229 228 227 227 227 227 229 231 232 230 228 228 229 229 231 232 233 232 231 233 237 238 238 238 241 245 246 245 247 248 247 246 245 244 243 237 227 228 251 263 257 260 285 304 303 283 266
143 146 145 141 132 130 131 122 111 103 97 91 81 72 57 36 33 36 33 30 22 2 303 267 253 236 228 224 222 226 229 228 225 222 222 224 228 232 233 231 230 229 228 227 229 231 230 229 230 231 228 225 225 228 230 229 228 232 235 235 235 237 241 243 242 241 243 246 248 250 252 249 241 237 233 229 239 246 247 261 283 296 295 273 264
153 153 149 149 149 150 144 130 118 110 102 92 77 64 54 43 35 37 40 42 39 23 4 357 292 222 231 229 222 219 224 229 228 225 227 228 226 229 235 230 227 229 228 226 228 230 230 229 230 231 230 227 224 225 227 228 229 230 228 228 233 238 240 239 238 239 239 243 251 251 249 248 241 237 233 226 229 235 241 265 277 277 283 273 270
159 149 147 153 156 158 146 134 128 119 110 98 82 63 48 44 38 37 39 37 37 32 16 10 339 263 259 245 234 232 231 231 231 231 233 234 231 235 246 246 230 225 227 227 227 229 231 230 230 230 228 226 227 227 225 225 227 227 226 227 231 235 237 236 236 237 236 239 247 247 247 246 235 226 222 217 214 215 225 244 247 245 255 260 265
158 152 158 157 150 156 154 146 139 126 116 104 87 69 42 31 24 23 29 26 23 18 13 8 327 305 308 288 252 242 239 236 235 231 229 237 240 240 247 255 252 238 229 229 230 231 231 230 228 227 224 223 226 228 227 226 226 225 226 228 229 231 235 237 235 231 228 232 238 242 245 238 221 211 213 217 219 225 235 236 229 231 239 248 261
156 156 161 154 148 154 150 139 133 129 123 104 82 65 39 28 18 15 22 29 33 30 15 360 329 331 337 322 288 267 254 243 238 234 232 239 244 237 237 241 244 245 241 236 234 232 230 229 225 223 223 224 226 228 228 228 228 227 226 226 226 226 226 229 227 221 220 224 228 232 230 218 206 207 219 228 229 230 235 233 232 236 243 261 275
158 157 154 148 147 147 142 136 135 134 126 105 78 54 42 37 24 20 26 36 50 59 53 31 350 357 13 353 294 278 272 259 246 243 242 241 235 232 238 237 234 237 240 244 247 237 229 228 228 226 225 225 227 228 226 225 226 227 228 225 222 220 220 222 221 217 217 218 218 217 208 198 197 206 220 228 224 225 232 226 223 244 267 276 275
159 154 148 146 146 146 149 146 142 137 123 100 78 55 46 34 19 19 31 42 54 54 41 33 10 353 3 3 318 286 277 270 262 254 248 245 240 239 244 243 237 237 239 244 257 252 235 229 228 229 228 226 226 227 224 222 223 225 227 225 221 218 220 220 217 215 214 211 210 206 196 196 202 207 216 219 204 199 210 192 169 359 304 277 269
157 152 147 148 153 155 156 152 143 139 133 118 106 74 31 21 16 24 44 51 52 30 9 6 357 339 338 339 322 309 297 276 267 263 254 251 250 245 242 243 242 240 237 239 249 254 244 231 226 226 227 225 225 226 223 221 223 224 224 222 218 218 222 222 217 216 212 207 204 199 191 192 198 197 199 199 184 167 153 151 156 141 133 261 271
149 148 144 151 156 153 151 148 143 143 147 149 135 58 28 23 38 67 65 45 26 6 351 345 341 332 328 325 310 304 307 297 277 267 259 254 252 249 243 244 247 243 236 235 239 243 244 236 226 224 225 225 225 226 225 223 223 223 222 219 217 219 224 224 221 218 215 208 201 197 191 186 187 187 184 181 177 175 167 160 162 150 128 118 112
146 146 149 158 157 151 147 144 145 148 149 145 102 81 95 101 77 60 43 28 7 354 349 342 336 329 324 320 312 304 302 302 296 281 268 260 257 254 248 245 247 247 243 239 240 243 245 242 232 224 222 224 225 226 226 224 221 221 219 216 214 216 219 219 216 214 212 205 196 195 191 187 186 188 189 183 178 174 167 155 144 130 115 106 99
151 152 159 163 158 153 150 146 147 153 144 127 133 145 150 129 53 32 32 26 10 360 359 353 343 335 328 323 320 315 308 303 300 292 279 269 264 259 250 243 243 248 252 250 247 245 245 245 244 236 224 221 222 223 224 222 220 219 216 211 209 212 214 212 207 203 201 196 190 190 188 185 184 182 181 179 173 166 159 147 133 122 113 105 97
152 154 158 162 158 153 149 143 143 154 157 157 168 172 158 110 43 23 23 19 10 6 1 355 347 341 333 326 323 322 318 311 304 297 285 273 268 265 255 244 241 245 251 254 253 251 250 250 250 245 236 226 219 218 218 218 217 215 212 205 203 204 203 197 192 191 191 188 186 187 186 182 179 175 170 167 166 164 156 145 133 124 116 109 101
149 152 156 157 154 148 144 143 144 148 160 168 172 173 152 100 67 29 13 7 3 1 359 354 348 344 338 332 330 328 325 321 313 304 293 277 268 267 259 246 243 247 253 256 256 255 252 248 244 241 239 235 227 220 215 213 213 214 210 202 194 190 186 183 181 181 182 180 179 183 186 182 177 174 168 163 165 165 155 145 136 128 122 117 110
151 155 158 156 150 145 142 145 144 144 157 170 173 168 138 106 75 28 10 5 358 353 355 359 354 349 347 344 345 346 341 333 322 315 305 277 259 256 253 246 245 250 254 254 251 247 243 242 242 242 241 238 234 231 223 216 213 210 204 197 188 181 177 175 175 174 172 171 172 175 180 181 176 172 168 165 168 166 155 145 137 130 125 121 116
158 162 158 150 146 144 143 144 146 148 161 174 171 157 129 96 64 40 28 19 13 9 4 8 10 9 10 10 11 15 15 4 344 330 322 276 246 241 237 239 243 248 251 250 248 247 245 243 243 245 244 241 238 234 229 222 214 202 195 194 191 185 179 175 174 175 173 171 172 172 172 174 174 170 168 167 166 161 151 142 136 129 125 123 119
164 161 150 143 145 146 145 144 144 148 165 180 176 160 122 93 76 66 63 56 53 46 29 25 34 36 35 34 36 40 42 41 35 23 18 25 271 222 208 209 215 224 235 236 235 234 234 233 235 238 239 238 235 229 223 216 206 197 196 199 196 192 189 183 177 175 174 173 174 173 169 168 169 169 166 161 156 151 144 138 133 128 127 128 125
155 147 142 142 142 143 143 141 140 146 165 181 174 146 114 112 113 91 80 74 75 71 54 50 54 51 48 49 52 57 59 59 60 62 61 62 68 83 108 137 166 179 173 165 173 179 175 177 202 219 225 224 221 217 210 201 194 190 191 194 192 189 189 184 176 172 170 167 167 167 164 163 163 162 158 152 146 143 138 133 130 129 129 129 126
133 136 142 144 141 142 144 144 145 150 155 154 142 128 131 157 159 117 89 62 72 99 75 59 56 54 54 58 63 67 70 68 66 68 69 69 75 87 99 110 127 137 133 126 125 122 108 91 81 83 98 133 163 190 195 190 184 178 176 181 181 178 179 177 170 166 163 157 153 152 151 152 152 148 145 141 137 134 131 129 129 130 128 127 125
134 139 144 142 139 140 141 143 144 136 129 133 134 139 165 179 162 130 98 40 114 145 95 58 54 57 62 69 75 77 77 73 72 74 74 73 75 83 91 99 110 116 113 106 102 102 97 86 77 72 76 93 110 123 147 164 167 165 166 171 173 170 169 164 152 149 152 145 138 135 136 137 136 132 129 128 126 124 123 125 127 127 126 125 123
136 140 139 135 133 133 136 141 142 134 131 140 156 192 199 177 133 121 115 105 123 139 118 77 69 72 76 81 85 85 83 77 72 73 75 75 76 79 80 83 89 93 94 93 91 92 92 89 84 77 72 81 98 105 110 120 135 142 143 149 157 152 143 132 119 108 127 134 130 125 124 123 122 120 118 116 117 118 121 124 125 124 123 123 121
130 134 131 128 126 127 130 133 138 144 146 133 109 125 156 152 135 126 123 118 116 114 106 95 88 85 86 90 91 92 92 85 76 73 75 78 81 83 83 82 82 84 85 87 88 90 91 90 88 86 82 83 91 97 102 107 116 121 118 116 122 122 117 112 106 92 80 108 116 115 113 111 112 113 112 109 110 115 119 119 117 117 119 121 123
126 130 130 128 125 124 126 128 135 149 148 125 106 101 103 120 134 133 123 113 110 108 104 98 92 87 88 89 88 89 91 87 80 77 77 78 81 85 85 83 83 85 86 88 89 91 92 90 88 88 89 89 90 92 96 100 104 108 110 110 108 108 110 110 108 103 91 83 94 101 104 106 107 110 111 112 112 112 113 111 109 110 112 114 117
126 131 132 131 128 128 129 128 129 143 162 154 131 107 102 115 133 139 128 113 109 109 104 96 88 85 88 87 85 85 87 86 84 83 80 78 78 81 82 82 85 91 93 92 91 91 91 92 93 93 93 90 89 90 93 98 101 103 106 108 107 106 108 107 106 108 105 97 95 99 103 105 105 105 107 110 110 109 108 108 108 109 109 110 112
130 133 134 133 133 134 134 128 119 125 152 159 140 125 118 120 137 148 142 129 121 115 105 97 92 89 90 90 87 87 88 86 85 84 82 80 82 83 84 84 88 96 102 102 99 97 97 98 97 97 98 94 90 92 98 103 106 106 106 107 107 107 107 107 107 109 109 106 103 103 103 103 103 102 102 104 105 105 105 106 106 108 109 109 110
131 132 132 133 133 134 133 128 123 126 136 145 141 134 125 134 156 159 147 134 131 124 114 108 102 94 93 93 90 89 89 87 86 86 85 85 86 87 89 90 91 96 101 103 102 102 103 103 101 99 101 100 99 103 107 107 107 107 108 108 108 109 109 111 113 113 110 106 104 103 103 104 105 104 103 102 102 103 103 102 104 105 105 105 105
133 132 132 132 135 137 135 132 133 131 134 141 140 128 113 124 159 169 163 149 138 131 123 118 111 104 102 100 96 95 95 93 92 92 91 90 88 86 88 93 96 98 98 99 100 100 100 101 102 103 104 106 106 107 107 107 107 109 109 109 109 110 110 112 114 113 108 105 104 104 104 105 106 106 106 105 104 104 103 103 103 102 101 102 101